Wind_Speed
4 7 8 6 7 2 19 15 16 15 16 12 6 10 10 5 4 6 21 21 21 19 21 21 22 20 18 17 15 14 14 14 13 14 14 14 13 13 14 13 13 12 12 12 12 12 13 13 13
5 13 10 8 10 23 16 15 16 15 15 14 11 9 7 10 5 18 23 21 20 20 21 21 21 20 17 16 15 14 13 13 13 13 14 14 13 13 13 13 13 12 11 10 10 10 11 11 12
19 16 8 7 11 18 11 11 14 13 11 10 10 3 11 16 6 20 22 22 21 21 21 20 20 19 17 16 15 14 12 11 11 11 11 10 11 11 11 11 11 10 10 8 7 7 9 8 9
22 11 13 17 21 16 14 12 13 12 9 9 4 6 16 18 6 9 18 17 20 21 20 19 18 17 17 16 15 13 11 10 9 9 8 9 8 8 8 8 7 8 8 7 6 5 6 6 6
9 20 10 7 12 10 11 10 7 13 7 9 6 14 21 16 14 18 20 11 15 19 19 17 17 16 16 15 13 12 10 8 7 7 6 6 5 5 5 5 5 4 4 4 4 4 4 5 5
11 10 2 6 9 9 9 6 6 14 7 4 4 17 19 18 17 19 30 18 18 11 17 17 16 16 16 14 12 10 9 7 6 6 6 4 3 3 3 3 2 3 3 4 5 5 5 5 5
12 12 6 8 9 9 3 1 11 8 10 9 4 6 12 22 17 13 16 22 26 11 17 16 15 15 14 14 12 10 9 7 6 7 6 6 6 5 6 4 4 5 5 6 6 7 8 9 9
6 5 13 7 6 9 4 6 10 6 6 9 3 10 13 23 25 15 15 18 13 11 17 17 16 15 14 12 12 10 8 8 7 6 6 8 9 9 9 8 6 7 7 7 7 7 8 10 11
4 6 9 12 9 6 5 5 7 6 7 2 1 5 15 22 28 18 19 15 19 15 15 16 15 14 13 12 11 10 10 9 8 7 10 13 13 13 15 12 7 8 9 8 7 7 8 9 10
5 5 13 12 9 7 6 4 5 4 4 7 9 13 19 19 26 24 20 18 15 15 12 10 13 14 13 13 12 11 11 11 12 12 13 14 13 20 13 4 8 9 11 9 8 7 8 8 9
5 4 8 7 10 8 5 4 11 11 1 7 15 19 19 23 22 21 21 19 15 14 11 13 6 10 9 13 11 11 10 11 11 11 13 16 16 16 17 13 12 12 10 11 9 8 7 9 10
4 4 7 9 8 9 9 8 10 2 4 13 12 19 21 22 20 19 18 19 17 19 14 16 12 14 11 10 10 8 10 10 11 13 11 9 9 14 17 18 12 14 13 12 15 11 14 9 8
12 5 5 6 11 10 8 9 2 6 8 6 15 18 20 20 18 16 15 15 17 13 17 17 15 14 14 12 11 6 11 10 8 11 11 11 6 8 12 19 20 15 12 12 11 16 17 8 11
5 5 3 5 16 11 8 6 3 5 10 10 12 15 17 18 17 17 16 14 16 13 14 14 20 15 13 11 12 8 2 5 6 7 10 9 8 8 9 11 15 12 13 11 6 6 6 10 13
6 5 7 7 6 8 6 6 5 10 10 11 11 13 16 16 17 16 15 15 12 15 13 12 15 6 8 10 5 2 2 5 7 7 7 7 5 6 7 8 10 11 10 6 5 6 9 10 11
15 6 3 8 4 7 6 10 7 12 12 12 12 13 13 16 16 17 15 15 15 16 14 16 13 11 4 5 7 7 6 7 9 9 8 6 6 3 4 5 7 9 10 8 6 10 12 11 12
6 12 7 10 11 9 7 9 15 14 12 12 13 15 15 16 16 15 15 16 14 14 15 11 11 11 9 4 3 8 10 10 9 8 8 7 6 5 7 5 5 7 10 8 9 11 10 12 11
8 9 13 8 20 20 14 9 21 18 13 13 15 16 16 15 15 15 15 13 14 15 10 14 9 8 10 10 8 8 9 8 9 7 9 7 5 6 6 7 7 8 8 9 11 11 12 12 10
24 21 9 13 22 7 11 22 26 20 14 14 16 17 17 15 13 15 11 13 16 13 15 8 8 7 9 10 9 9 9 9 9 11 13 7 5 5 6 6 8 10 10 11 13 12 13 11 13
7 15 23 10 4 4 2 10 14 18 16 16 16 17 16 16 16 17 14 16 13 17 14 11 9 8 7 8 11 9 8 7 8 15 14 9 4 5 5 6 7 9 11 14 16 16 13 9 11
31 10 8 8 3 8 7 6 11 6 14 14 14 15 15 15 16 15 17 15 15 18 20 16 8 7 7 9 9 10 9 8 7 6 5 4 4 3 3 7 9 8 8 9 13 15 12 10 11
11 10 3 6 8 12 5 8 11 16 18 18 17 16 14 15 14 16 15 16 15 17 19 7 4 5 4 6 7 8 8 9 7 5 4 4 4 5 6 6 9 8 11 10 8 11 9 4 8
12 6 17 10 16 11 4 8 14 6 7 16 26 15 13 14 15 18 14 14 14 17 18 17 6 3 5 6 7 8 8 8 7 9 8 7 6 5 6 8 9 7 6 7 8 2 4 1 2
9 9 12 17 17 9 15 21 7 12 8 10 21 17 15 16 17 15 14 13 12 14 14 19 13 8 6 6 8 9 8 10 9 10 10 10 10 10 10 8 8 5 5 5 3 3 1 2 3
13 18 25 10 5 9 14 20 10 11 8 7 4 10 16 17 18 21 19 15 13 12 16 23 22 11 12 10 9 11 13 11 11 11 13 15 11 12 11 10 9 8 7 4 1 1 3 3 2
16 19 17 6 7 6 20 8 7 8 9 9 8 8 11 16 19 21 14 11 11 14 15 20 29 18 15 16 14 14 16 17 16 16 14 15 16 15 14 15 13 13 10 9 8 7 6 5 5
17 16 1 5 7 11 9 22 28 15 11 9 9 6 6 8 16 19 11 9 15 19 24 26 31 20 20 20 18 20 20 20 21 21 21 20 20 20 21 19 20 25 14 12 12 11 9 9 8
20 20 8 11 7 8 9 20 17 15 9 8 7 7 10 12 17 16 22 19 22 26 31 31 28 23 24 23 23 24 22 22 23 25 27 28 29 27 28 22 23 28 34 14 12 14 13 12 13
25 21 12 20 33 8 5 8 6 11 26 18 12 7 6 9 10 8 6 5 14 20 24 22 20 21 21 24 24 24 23 25 26 27 27 27 32 38 20 28 35 35 22 13 10 15 15 17 18
23 20 21 25 16 17 16 7 8 0 20 20 15 12 12 11 7 3 3 5 8 10 10 13 14 16 20 22 22 23 24 25 25 26 27 26 28 31 31 37 34 40 37 24 21 19 19 22 25
Wind_Direction
98 88 105 76 97 273 106 101 101 90 89 86 65 92 81 130 137 153 150 141 139 137 137 134 132 132 129 122 118 116 115 111 108 102 102 103 103 99 98 100 106 115 109 111 110 109 108 110 110
123 76 48 152 121 90 64 84 93 99 105 111 83 105 86 82 186 141 142 145 143 141 140 136 134 133 130 126 125 124 119 114 111 106 101 102 103 99 99 99 101 105 107 111 115 117 113 112 114
76 62 18 51 85 104 81 62 85 111 123 103 104 101 70 120 93 135 146 148 147 144 142 139 138 137 136 133 132 130 126 124 119 114 111 108 102 103 111 107 109 110 115 119 120 120 116 121 122
18 299 73 58 71 90 92 92 89 117 88 44 106 87 102 114 158 143 137 146 152 148 144 145 143 143 143 141 139 140 137 135 130 127 126 122 118 120 116 116 117 120 125 134 134 136 135 134 135
26 53 37 99 76 74 74 94 123 100 72 97 142 112 126 133 165 137 149 148 126 146 149 151 150 152 153 151 149 150 150 145 141 137 136 135 136 138 135 137 140 141 156 160 156 152 155 155 161
252 304 37 63 48 89 78 61 72 87 96 78 35 133 141 142 144 171 144 147 185 147 160 161 161 162 162 163 162 165 162 160 162 161 162 162 174 178 170 169 191 197 199 214 223 225 213 201 203
325 317 44 38 86 79 10 200 128 107 105 110 85 112 166 144 175 172 134 172 184 190 173 169 173 172 172 174 178 185 184 187 191 196 190 196 199 210 215 201 241 243 231 229 234 236 237 235 227
31 103 61 62 69 92 130 49 77 125 100 123 168 269 187 157 157 174 124 194 146 241 189 177 179 183 184 190 195 202 209 218 220 233 240 235 228 226 237 221 202 253 243 240 239 244 246 245 244
56 22 66 63 62 89 114 114 27 98 105 118 85 181 155 169 151 168 151 172 192 223 183 188 187 192 197 203 210 222 238 247 263 258 253 255 257 252 240 223 219 247 251 250 248 252 249 251 254
45 84 46 64 58 85 91 105 149 169 115 99 128 145 152 163 157 160 171 185 187 222 226 226 191 200 213 216 221 233 253 271 277 273 268 251 275 244 245 335 218 237 247 255 254 256 249 253 254
70 112 84 68 73 72 101 111 156 133 236 159 159 156 156 156 159 168 167 177 196 206 191 262 233 260 221 238 212 246 269 289 296 277 272 272 246 240 247 240 251 244 251 255 259 257 269 255 250
203 94 91 81 81 84 95 88 106 72 41 160 167 162 158 164 163 175 173 177 196 180 201 237 244 250 259 257 250 269 283 309 281 283 296 292 253 242 240 240 244 238 250 256 276 273 258 272 278
130 150 132 123 107 76 74 113 93 144 124 152 155 166 168 168 170 178 179 184 201 203 198 219 246 252 262 268 299 288 299 293 296 304 294 280 265 234 237 234 227 241 259 270 280 289 258 258 253
273 228 194 157 111 87 57 80 61 102 144 145 154 165 173 171 176 183 181 196 207 219 212 213 236 256 255 276 305 294 323 310 317 317 331 304 280 253 244 251 244 247 251 257 265 258 259 262 275
191 215 125 88 151 105 96 103 129 133 160 159 159 168 177 180 182 190 194 198 207 218 252 262 246 250 226 247 265 288 315 328 323 321 331 330 302 292 278 264 247 241 247 264 258 262 264 273 268
216 172 114 198 148 165 172 158 156 152 156 162 168 173 182 180 189 191 192 198 198 221 238 247 251 264 227 253 267 277 288 316 317 322 334 335 328 299 278 253 246 247 250 257 271 268 276 267 254
41 93 176 248 250 240 64 152 164 161 163 172 184 185 179 183 190 197 196 198 225 233 246 240 258 278 285 268 260 286 297 304 311 321 311 316 291 292 274 271 262 246 248 256 258 268 274 268 255
350 234 239 183 197 225 163 191 174 165 167 182 191 196 183 191 191 204 196 203 232 257 242 255 250 277 283 300 309 287 292 293 298 296 292 286 296 279 275 283 293 277 272 259 269 274 277 264 251
236 232 304 265 194 221 230 176 177 152 167 196 195 195 196 193 198 206 215 196 233 262 261 279 268 272 285 299 300 277 281 291 285 297 286 259 288 290 280 285 287 287 274 268 275 279 280 264 249
254 279 217 278 83 227 288 264 329 144 170 206 200 197 198 193 200 194 207 201 213 252 280 290 275 280 279 293 303 310 302 289 291 307 290 297 339 338 345 315 307 298 285 272 263 260 263 256 249
227 192 301 258 244 271 331 311 261 250 190 212 215 203 203 203 198 204 206 198 215 236 271 298 286 288 281 293 297 308 305 294 290 306 295 303 309 297 318 334 327 322 344 317 268 272 256 248 246
276 348 283 269 248 230 357 286 293 263 250 235 219 206 203 210 206 219 207 208 212 230 259 291 313 330 327 295 302 300 307 303 296 281 311 300 311 299 293 314 317 311 327 331 323 298 224 268 262
304 284 238 263 274 173 41 257 287 267 257 213 207 211 205 210 212 200 210 216 207 225 259 308 306 318 337 325 304 306 301 292 286 288 305 288 293 285 292 302 309 298 314 335 350 135 190 223 300
235 285 249 254 256 211 232 210 242 236 222 131 171 184 209 210 209 203 220 221 218 230 262 270 302 300 295 309 309 313 311 299 299 293 280 283 293 294 288 287 302 290 305 326 15 88 150 169 181
285 258 269 248 300 355 330 310 204 188 208 115 150 165 201 208 203 211 197 207 231 224 234 254 290 297 295 292 297 301 306 304 295 293 294 293 282 276 272 280 278 282 274 268 277 147 174 177 191
235 258 308 43 23 322 313 1 10 153 145 145 139 150 174 210 216 196 211 205 220 232 246 248 278 292 287 287 283 283 284 284 289 289 285 281 279 269 270 274 268 260 258 251 250 243 223 223 223
228 254 155 115 248 226 228 264 270 186 156 152 142 135 145 171 199 164 175 198 201 216 226 245 268 279 273 273 278 280 278 278 282 281 282 278 270 265 266 263 268 260 225 249 249 249 247 241 256
235 242 251 86 336 263 201 231 182 198 195 71 143 136 171 202 203 196 199 218 226 238 248 259 257 265 266 267 282 286 282 280 283 279 279 280 277 268 265 259 274 270 260 217 247 259 265 262 270
226 233 236 240 186 245 215 243 166 221 246 179 193 194 210 204 184 204 227 237 243 250 260 276 270 273 274 276 279 284 286 286 284 283 281 278 276 276 248 270 272 257 297 282 266 262 259 266 272
233 234 233 246 249 261 296 94 73 157 214 149 170 172 180 182 195 232 299 308 308 302 296 293 295 277 274 273 276 278 281 284 288 289 291 287 282 283 291 286 266 250 274 273 267 267 281 267 270
Height
3151 3153 3152 3152 3155 3150 3150 3156 3154 3154 3157 3159 3159 3159 3159 3160 3160 3163 3165 3168 3171 3174 3176 3179 3181 3184 3185 3186 3187 3189 3190 3191 3192 3193 3194 3194 3194 3195 3195 3196 3197 3198 3198 3198 3198 3198 3201 3203 3204
3153 3151 3152 3146 3149 3153 3154 3156 3154 3155 3158 3161 3161 3160 3160 3160 3159 3160 3165 3169 3172 3175 3177 3179 3182 3185 3187 3188 3189 3190 3192 3193 3194 3195 3195 3196 3195 3196 3197 3198 3198 3199 3200 3201 3200 3202 3204 3205 3206
3154 3154 3153 3145 3146 3151 3157 3156 3157 3159 3159 3162 3162 3161 3162 3163 3162 3163 3167 3169 3173 3176 3179 3181 3183 3186 3188 3190 3191 3192 3193 3195 3196 3196 3196 3197 3197 3198 3198 3199 3199 3200 3200 3201 3202 3204 3205 3206 3206
3155 3152 3141 3150 3152 3158 3160 3161 3160 3161 3162 3162 3161 3163 3166 3170 3165 3170 3171 3172 3174 3177 3180 3183 3185 3187 3189 3191 3192 3194 3195 3196 3197 3197 3197 3198 3198 3199 3200 3200 3200 3201 3201 3201 3202 3204 3206 3207 3207
3158 3151 3151 3157 3157 3156 3158 3158 3160 3160 3163 3162 3161 3165 3168 3171 3169 3173 3175 3177 3178 3178 3182 3185 3186 3187 3189 3191 3193 3195 3196 3196 3197 3199 3199 3200 3201 3201 3201 3202 3202 3202 3202 3202 3202 3204 3206 3207 3206
3164 3162 3162 3161 3159 3158 3160 3160 3159 3161 3164 3163 3162 3165 3168 3172 3172 3174 3177 3181 3179 3182 3184 3186 3187 3188 3190 3192 3194 3196 3197 3197 3198 3199 3200 3201 3203 3203 3203 3203 3203 3203 3202 3202 3202 3204 3205 3206 3206
3165 3165 3163 3160 3161 3160 3161 3161 3159 3161 3165 3167 3164 3162 3167 3171 3173 3174 3179 3181 3177 3183 3185 3186 3188 3188 3190 3192 3194 3196 3197 3197 3197 3199 3200 3201 3202 3203 3202 3202 3204 3203 3202 3201 3201 3203 3204 3204 3205
3167 3165 3162 3161 3161 3163 3162 3163 3162 3163 3165 3167 3167 3163 3165 3169 3174 3175 3180 3180 3181 3183 3186 3187 3188 3189 3191 3192 3194 3196 3196 3196 3197 3199 3201 3201 3201 3202 3203 3203 3200 3203 3202 3200 3201 3202 3203 3203 3203
3168 3169 3164 3162 3162 3164 3163 3163 3164 3166 3167 3166 3165 3162 3165 3168 3174 3178 3181 3184 3186 3184 3186 3187 3188 3189 3191 3193 3194 3196 3196 3196 3197 3198 3199 3199 3201 3200 3200 3200 3199 3202 3202 3200 3200 3201 3202 3202 3202
3167 3170 3166 3164 3164 3165 3164 3166 3166 3168 3169 3168 3168 3165 3167 3169 3175 3181 3183 3184 3186 3186 3185 3187 3188 3190 3191 3192 3194 3195 3195 3195 3195 3196 3196 3197 3196 3196 3196 3196 3197 3199 3200 3198 3197 3199 3200 3202 3201
3169 3170 3166 3166 3167 3167 3167 3167 3165 3167 3168 3170 3168 3167 3168 3172 3176 3181 3184 3187 3187 3187 3187 3187 3187 3188 3190 3191 3193 3194 3194 3194 3193 3192 3192 3192 3192 3192 3194 3195 3196 3198 3199 3196 3195 3197 3199 3199 3198
3170 3170 3168 3168 3169 3168 3168 3168 3166 3171 3167 3169 3168 3170 3171 3175 3178 3181 3184 3186 3187 3189 3190 3189 3188 3189 3189 3191 3191 3191 3192 3191 3190 3190 3189 3188 3189 3189 3191 3193 3194 3196 3195 3194 3192 3193 3196 3197 3198
3170 3169 3167 3168 3169 3172 3172 3170 3170 3170 3172 3170 3170 3172 3173 3176 3179 3183 3185 3186 3187 3188 3190 3190 3189 3189 3189 3189 3190 3190 3191 3190 3189 3188 3187 3186 3187 3188 3189 3190 3191 3191 3192 3192 3191 3190 3190 3195 3197
3166 3162 3169 3156 3165 3173 3176 3172 3170 3169 3173 3172 3172 3174 3175 3178 3180 3182 3185 3185 3187 3187 3189 3191 3188 3188 3189 3189 3188 3189 3190 3190 3189 3188 3186 3185 3185 3185 3186 3187 3188 3189 3189 3188 3188 3187 3188 3189 3191
3167 3163 3168 3165 3165 3170 3173 3172 3170 3170 3172 3174 3175 3176 3177 3179 3181 3182 3183 3185 3186 3186 3188 3188 3187 3187 3189 3189 3190 3189 3190 3189 3188 3187 3187 3186 3185 3184 3184 3185 3186 3187 3187 3188 3187 3188 3190 3190 3190
3169 3166 3173 3174 3175 3166 3169 3165 3167 3169 3171 3174 3176 3177 3177 3178 3180 3181 3183 3184 3186 3186 3186 3187 3186 3185 3186 3187 3188 3189 3189 3188 3187 3186 3184 3184 3184 3184 3184 3184 3184 3185 3186 3186 3186 3187 3187 3188 3188
3165 3172 3173 3173 3173 3165 3170 3167 3165 3166 3171 3174 3176 3176 3177 3178 3179 3179 3181 3183 3183 3184 3185 3186 3185 3183 3185 3185 3186 3186 3187 3187 3187 3186 3185 3184 3184 3183 3183 3183 3183 3184 3184 3183 3184 3185 3185 3185 3186
3176 3169 3169 3171 3162 3162 3166 3159 3163 3163 3168 3172 3173 3175 3176 3178 3179 3179 3181 3182 3182 3182 3184 3184 3184 3183 3183 3183 3184 3184 3184 3185 3185 3185 3184 3182 3183 3182 3183 3182 3183 3183 3182 3183 3183 3183 3183 3183 3183
3165 3166 3163 3154 3156 3162 3160 3152 3151 3151 3166 3170 3170 3173 3174 3177 3179 3178 3180 3181 3180 3181 3180 3183 3184 3184 3183 3182 3184 3183 3184 3183 3183 3182 3180 3178 3179 3181 3181 3181 3181 3180 3180 3180 3180 3181 3181 3179 3180
3164 3167 3171 3159 3161 3162 3161 3153 3126 3145 3161 3167 3169 3171 3173 3175 3178 3179 3180 3182 3182 3179 3180 3182 3183 3182 3183 3182 3181 3181 3181 3183 3183 3181 3178 3166 3177 3179 3179 3180 3178 3178 3177 3177 3177 3177 3176 3175 3177
3160 3171 3163 3161 3161 3161 3161 3160 3153 3161 3167 3172 3171 3171 3173 3174 3177 3177 3179 3181 3183 3181 3180 3181 3182 3180 3181 3181 3181 3180 3180 3181 3181 3179 3179 3177 3180 3180 3179 3180 3178 3178 3176 3174 3173 3173 3175 3175 3176
3156 3159 3160 3159 3161 3161 3162 3162 3159 3159 3163 3170 3172 3171 3172 3175 3177 3177 3179 3180 3182 3182 3181 3181 3180 3180 3180 3180 3180 3180 3180 3179 3179 3180 3180 3179 3179 3179 3178 3178 3177 3175 3173 3173 3171 3169 3172 3173 3174
3161 3159 3160 3159 3157 3157 3159 3165 3159 3159 3162 3159 3164 3170 3170 3173 3175 3177 3177 3178 3181 3180 3178 3178 3179 3179 3179 3179 3179 3178 3179 3179 3178 3179 3179 3178 3177 3178 3177 3176 3175 3174 3174 3171 3170 3169 3170 3172 3173
3161 3160 3159 3156 3154 3154 3155 3159 3158 3155 3156 3153 3155 3161 3166 3169 3172 3173 3174 3176 3177 3179 3178 3176 3177 3178 3178 3178 3178 3177 3177 3177 3177 3177 3176 3176 3176 3177 3176 3176 3174 3173 3172 3172 3170 3169 3170 3170 3171
3160 3160 3155 3150 3152 3160 3161 3157 3152 3153 3155 3154 3156 3161 3164 3166 3167 3166 3168 3171 3175 3177 3177 3174 3175 3177 3176 3176 3176 3177 3176 3175 3174 3173 3174 3174 3173 3173 3174 3175 3174 3172 3171 3171 3170 3169 3169 3169 3170
3157 3157 3154 3159 3167 3168 3160 3164 3156 3157 3157 3159 3161 3163 3163 3163 3162 3165 3171 3173 3171 3176 3175 3173 3171 3174 3174 3173 3173 3173 3174 3173 3172 3172 3171 3171 3170 3170 3170 3172 3171 3169 3169 3169 3169 3168 3168 3168 3168
3154 3156 3156 3160 3165 3161 3161 3163 3160 3155 3155 3160 3160 3161 3163 3164 3164 3139 3170 3175 3169 3172 3173 3171 3168 3169 3170 3169 3170 3171 3170 3171 3170 3169 3168 3168 3166 3165 3165 3165 3165 3161 3156 3161 3164 3164 3165 3166 3165
3150 3153 3155 3155 3172 3162 3161 3153 3152 3150 3147 3146 3162 3160 3161 3160 3161 3164 3166 3165 3164 3167 3168 3167 3164 3165 3164 3164 3166 3166 3167 3165 3166 3164 3163 3163 3162 3160 3159 3160 3160 3159 3143 3149 3157 3159 3161 3163 3163
3145 3146 3150 3151 3155 3143 3141 3144 3144 3148 3144 3150 3161 3156 3159 3159 3159 3160 3161 3163 3165 3163 3161 3160 3163 3162 3162 3162 3162 3161 3161 3161 3160 3159 3158 3159 3157 3154 3146 3151 3152 3144 3140 3148 3151 3154 3155 3156 3158
3140 3141 3144 3144 3142 3140 3138 3152 3150 3144 3145 3149 3153 3156 3156 3156 3158 3159 3159 3160 3160 3159 3159 3159 3159 3160 3159 3158 3157 3156 3156 3155 3154 3153 3151 3150 3149 3148 3146 3145 3145 3146 3145 3148 3150 3150 3149 3150 3151